Time,TemperatureF,DewpointF,PressureIn,WindDirection,WindDirectionDegrees,WindSpeedMPH,WindSpeedGustMPH,Humidity,HourlyPrecipIn,Conditions,Clouds,dailyrainin,SoftwareType,DateUTC
2013-09-05 00:13:00,69.0,-99.9,-100.00,WSW,252,1.0,-999.0,-999,0.00,,,0.00,,2013-09-05 05:13:00,
2013-09-05 00:23:00,69.0,-99.9,-100.00,WSW,252,1.0,-999.0,-999,0.00,,,0.00,,2013-09-05 05:23:00,
2013-09-05 00:43:00,68.0,-99.9,-100.00,SW,225,2.0,-999.0,-999,0.00,,,0.00,,2013-09-05 05:43:00,
2013-09-05 00:52:00,68.0,-99.9,-100.00,SW,225,2.0,-999.0,-999,0.00,,,0.00,,2013-09-05 05:52:00,
2013-09-05 01:13:00,68.0,-99.9,-100.00,WSW,245,1.0,-999.0,-999,0.00,,,0.00,,2013-09-05 06:13:00,
2013-09-05 01:22:00,68.0,-99.9,-100.00,WSW,245,1.0,-999.0,-999,0.00,,,0.00,,2013-09-05 06:22:00,
2013-09-05 01:42:00,68.0,-99.9,-100.00,West,264,1.0,-999.0,-999,0.00,,,0.00,,2013-09-05 06:42:00,
2013-09-05 01:52:00,68.0,-99.9,-100.00,West,264,1.0,-999.0,-999,0.00,,,0.00,,2013-09-05 06:52:00,
2013-09-05 02:12:00,67.0,-99.9,-100.00,SW,232,1.0,-999.0,-999,0.00,,,0.00,,2013-09-05 07:12:00,
2013-09-05 02:23:00,67.0,-99.9,-100.00,SW,232,1.0,-999.0,-999,0.00,,,0.00,,2013-09-05 07:23:00,
2013-09-05 02:42:00,67.0,-99.9,-100.00,WSW,242,1.0,-999.0,-999,0.00,,,0.00,,2013-09-05 07:42:00,
2013-09-05 02:52:00,67.0,-99.9,-100.00,WSW,242,1.0,-999.0,-999,0.00,,,0.00,,2013-09-05 07:52:00,
2013-09-05 03:12:00,66.0,-99.9,-100.00,WSW,257,2.0,-999.0,-999,0.00,,,0.00,,2013-09-05 08:12:00,
2013-09-05 03:22:00,66.0,-99.9,-100.00,WSW,257,2.0,-999.0,-999,0.00,,,0.00,,2013-09-05 08:22:00,
2013-09-05 03:42:00,65.0,-99.9,-100.00,WSW,242,2.0,-999.0,-999,0.00,,,0.00,,2013-09-05 08:42:00,
2013-09-05 03:52:00,65.0,-99.9,-100.00,WSW,242,2.0,-999.0,-999,0.00,,,0.00,,2013-09-05 08:52:00,
2013-09-05 04:11:00,65.0,-99.9,-100.00,West,272,2.0,-999.0,-999,0.00,,,0.00,,2013-09-05 09:11:00,
2013-09-05 04:22:00,65.0,-99.9,-100.00,West,272,2.0,-999.0,-999,0.00,,,0.00,,2013-09-05 09:22:00,
2013-09-05 04:43:00,65.0,-99.9,-100.00,WSW,246,1.0,-999.0,-999,0.00,,,0.00,,2013-09-05 09:43:00,
2013-09-05 04:54:00,65.0,-99.9,-100.00,WSW,246,1.0,-999.0,-999,0.00,,,0.00,,2013-09-05 09:54:00,
2013-09-05 05:13:00,64.0,-99.9,-100.00,WSW,248,2.0,-999.0,-999,0.00,,,0.00,,2013-09-05 10:13:00,
2013-09-05 05:23:00,64.0,-99.9,-100.00,WSW,248,2.0,-999.0,-999,0.00,,,0.00,,2013-09-05 10:23:00,
2013-09-05 05:43:00,64.0,-99.9,-100.00,SW,232,2.0,-999.0,-999,0.00,,,0.00,,2013-09-05 10:43:00,
2013-09-05 05:53:00,64.0,-99.9,-100.00,SW,232,2.0,-999.0,-999,0.00,,,0.00,,2013-09-05 10:53:00,
2013-09-05 06:12:00,64.0,-99.9,-100.00,SW,231,1.0,-999.0,-999,0.00,,,0.00,,2013-09-05 11:12:00,
2013-09-05 06:22:00,64.0,-99.9,-100.00,SW,231,1.0,-999.0,-999,0.00,,,0.00,,2013-09-05 11:22:00,
2013-09-05 06:43:00,64.0,-99.9,-100.00,WSW,254,1.0,-999.0,-999,0.00,,,0.00,,2013-09-05 11:43:00,
2013-09-05 07:13:00,64.0,-99.9,-100.00,WSW,257,2.0,-999.0,-999,0.00,,,0.00,,2013-09-05 12:13:00,
2013-09-05 07:22:00,64.0,-99.9,-100.00,WSW,257,2.0,-999.0,-999,0.00,,,0.00,,2013-09-05 12:22:00,
2013-09-05 07:42:00,64.0,-99.9,-100.00,WSW,247,1.0,-999.0,-999,0.00,,,0.00,,2013-09-05 12:42:00,
2013-09-05 07:52:00,64.0,-99.9,-100.00,WSW,247,1.0,-999.0,-999,0.00,,,0.00,,2013-09-05 12:52:00,
2013-09-05 08:12:00,66.0,-99.9,-100.00,NNE,22,2.0,-999.0,-999,0.00,,,0.00,,2013-09-05 13:12:00,
2013-09-05 08:22:00,66.0,-99.9,-100.00,NNE,22,2.0,-999.0,-999,0.00,,,0.00,,2013-09-05 13:22:00,
2013-09-05 08:30:00,71.0,-99.9,-100.00,North,11,1.0,-999.0,-999,0.00,,,0.00,,2013-09-05 13:30:00,
2013-09-05 08:42:00,67.0,-99.9,-100.00,NW,304,1.0,-999.0,-999,0.00,,,0.00,,2013-09-05 13:42:00,
2013-09-05 08:53:00,67.0,-99.9,-100.00,NW,304,1.0,-999.0,-999,0.00,,,0.00,,2013-09-05 13:53:00,
2013-09-05 09:12:00,71.0,-99.9,-100.00,North,11,1.0,-999.0,-999,0.00,,,0.00,,2013-09-05 14:12:00,
2013-09-05 09:22:00,71.0,-99.9,-100.00,North,11,1.0,-999.0,-999,0.00,,,0.00,,2013-09-05 14:22:00,
2013-09-05 10:11:00,73.0,-99.9,-100.00,ESE,107,1.0,-999.0,-999,0.00,,,0.00,,2013-09-05 15:11:00,
2013-09-05 10:22:00,73.0,-99.9,-100.00,ESE,107,1.0,-999.0,-999,0.00,,,0.00,,2013-09-05 15:22:00,
2013-09-05 10:44:00,77.0,-99.9,-100.00,ENE,59,1.0,-999.0,-999,0.00,,,0.00,,2013-09-05 15:44:00,
2013-09-05 10:54:00,77.0,-99.9,-100.00,ENE,59,1.0,-999.0,-999,0.00,,,0.00,,2013-09-05 15:54:00,
2013-09-05 11:13:00,78.0,-99.9,-100.00,ESE,118,2.0,-999.0,-999,0.00,,,0.00,,2013-09-05 16:13:00,
2013-09-05 11:24:00,78.0,-99.9,-100.00,ESE,118,2.0,-999.0,-999,0.00,,,0.00,,2013-09-05 16:24:00,
2013-09-05 11:43:00,82.0,-99.9,-100.00,East,79,1.0,-999.0,-999,0.00,,,0.00,,2013-09-05 16:43:00,
2013-09-05 11:54:00,82.0,-99.9,-100.00,East,79,1.0,-999.0,-999,0.00,,,0.00,,2013-09-05 16:54:00,
2013-09-05 12:12:00,82.0,-99.9,-100.00,ESE,118,1.0,-999.0,-999,0.00,,,0.00,,2013-09-05 17:12:00,
2013-09-05 12:23:00,82.0,-99.9,-100.00,ESE,118,1.0,-999.0,-999,0.00,,,0.00,,2013-09-05 17:23:00,
2013-09-05 13:12:00,85.0,-99.9,-100.00,SE,133,3.0,-999.0,-999,0.00,,,0.00,,2013-09-05 18:12:00,
2013-09-05 13:22:00,85.0,-99.9,-100.00,SE,133,3.0,-999.0,-999,0.00,,,0.00,,2013-09-05 18:22:00,
2013-09-05 13:43:00,86.0,-99.9,-100.00,ESE,122,4.0,-999.0,-999,0.00,,,0.00,,2013-09-05 18:43:00,
2013-09-05 13:52:00,86.0,-99.9,-100.00,ESE,122,4.0,-999.0,-999,0.00,,,0.00,,2013-09-05 18:52:00,
2013-09-05 14:11:00,87.0,-99.9,-100.00,SE,140,5.0,-999.0,-999,0.00,,,0.00,,2013-09-05 19:11:00,
2013-09-05 14:22:00,87.0,-99.9,-100.00,SE,140,5.0,-999.0,-999,0.00,,,0.00,,2013-09-05 19:22:00,
2013-09-05 14:42:00,88.0,-99.9,-100.00,East,101,3.0,-999.0,-999,0.00,,,0.00,,2013-09-05 19:42:00,
2013-09-05 14:52:00,88.0,-99.9,-100.00,East,101,3.0,-999.0,-999,0.00,,,0.00,,2013-09-05 19:52:00,
2013-09-05 15:11:00,87.0,-99.9,-100.00,SE,144,6.0,-999.0,-999,0.00,,,0.00,,2013-09-05 20:11:00,
2013-09-05 15:22:00,87.0,-99.9,-100.00,SE,144,6.0,-999.0,-999,0.00,,,0.00,,2013-09-05 20:22:00,
2013-09-05 15:43:00,86.0,-99.9,-100.00,SE,133,6.0,-999.0,-999,0.00,,,0.00,,2013-09-05 20:43:00,
2013-09-05 15:52:00,86.0,-99.9,-100.00,SE,133,6.0,-999.0,-999,0.00,,,0.00,,2013-09-05 20:52:00,
2013-09-05 16:12:00,87.0,-99.9,-100.00,SE,145,7.0,-999.0,-999,0.00,,,0.00,,2013-09-05 21:12:00,
2013-09-05 16:22:00,87.0,-99.9,-100.00,SE,145,7.0,-999.0,-999,0.00,,,0.00,,2013-09-05 21:22:00,
2013-09-05 16:44:00,86.0,-99.9,-100.00,SE,146,5.0,-999.0,-999,0.00,,,0.00,,2013-09-05 21:44:00,
2013-09-05 16:54:00,86.0,-99.9,-100.00,SE,146,5.0,-999.0,-999,0.00,,,0.00,,2013-09-05 21:54:00,
2013-09-05 17:13:00,87.0,-99.9,-100.00,SSE,163,3.0,-999.0,-999,0.00,,,0.00,,2013-09-05 22:13:00,
2013-09-05 17:24:00,87.0,-99.9,-100.00,SSE,163,3.0,-999.0,-999,0.00,,,0.00,,2013-09-05 22:24:00,
2013-09-05 17:43:00,86.0,-99.9,-100.00,SE,127,6.0,-999.0,-999,0.00,,,0.00,,2013-09-05 22:43:00,
2013-09-05 17:53:00,86.0,-99.9,-100.00,SE,127,6.0,-999.0,-999,0.00,,,0.00,,2013-09-05 22:53:00,
2013-09-05 18:12:00,86.0,-99.9,-100.00,SE,143,4.0,-999.0,-999,0.00,,,0.00,,2013-09-05 23:12:00,
2013-09-05 18:23:00,86.0,-99.9,-100.00,SE,143,4.0,-999.0,-999,0.00,,,0.00,,2013-09-05 23:23:00,
2013-09-05 18:42:00,83.0,-99.9,-100.00,SSW,211,2.0,-999.0,-999,0.00,,,0.00,,2013-09-05 23:42:00,
2013-09-05 18:53:00,83.0,-99.9,-100.00,SSW,211,2.0,-999.0,-999,0.00,,,0.00,,2013-09-05 23:53:00,
2013-09-05 19:12:00,81.0,-99.9,-100.00,SW,224,2.0,-999.0,-999,0.00,,,0.00,,2013-09-06 00:12:00,
2013-09-05 19:22:00,81.0,-99.9,-100.00,SW,224,2.0,-999.0,-999,0.00,,,0.00,,2013-09-06 00:22:00,
2013-09-05 19:42:00,79.0,-99.9,-100.00,SW,228,2.0,-999.0,-999,0.00,,,0.00,,2013-09-06 00:42:00,
2013-09-05 19:52:00,79.0,-99.9,-100.00,SW,228,2.0,-999.0,-999,0.00,,,0.00,,2013-09-06 00:52:00,
2013-09-05 20:11:00,77.0,-99.9,-100.00,SW,236,2.0,-999.0,-999,0.00,,,0.00,,2013-09-06 01:11:00,
2013-09-05 20:22:00,77.0,-99.9,-100.00,SW,236,2.0,-999.0,-999,0.00,,,0.00,,2013-09-06 01:22:00,
2013-09-05 20:42:00,76.0,-99.9,-100.00,SW,231,2.0,-999.0,-999,0.00,,,0.00,,2013-09-06 01:42:00,
2013-09-05 20:52:00,76.0,-99.9,-100.00,SW,231,2.0,-999.0,-999,0.00,,,0.00,,2013-09-06 01:52:00,
2013-09-05 21:12:00,75.0,-99.9,-100.00,SW,218,2.0,-999.0,-999,0.00,,,0.00,,2013-09-06 02:12:00,
2013-09-05 21:22:00,75.0,-99.9,-100.00,SW,218,2.0,-999.0,-999,0.00,,,0.00,,2013-09-06 02:22:00,
2013-09-05 21:42:00,74.0,-99.9,-100.00,SW,236,1.0,-999.0,-999,0.00,,,0.00,,2013-09-06 02:42:00,
2013-09-05 21:52:00,74.0,-99.9,-100.00,SW,236,1.0,-999.0,-999,0.00,,,0.00,,2013-09-06 02:52:00,
2013-09-05 22:11:00,73.0,-99.9,-100.00,SW,217,1.0,-999.0,-999,0.00,,,0.00,,2013-09-06 03:11:00,
2013-09-05 22:22:00,73.0,-99.9,-100.00,SW,217,1.0,-999.0,-999,0.00,,,0.00,,2013-09-06 03:22:00,
2013-09-05 22:44:00,72.0,-99.9,-100.00,SW,227,1.0,-999.0,-999,0.00,,,0.00,,2013-09-06 03:44:00,
2013-09-05 22:55:00,72.0,-99.9,-100.00,SW,227,1.0,-999.0,-999,0.00,,,0.00,,2013-09-06 03:55:00,
2013-09-05 23:14:00,72.0,-99.9,-100.00,WSW,249,1.0,-999.0,-999,0.00,,,0.00,,2013-09-06 04:14:00,
2013-09-05 23:23:00,72.0,-99.9,-100.00,WSW,249,1.0,-999.0,-999,0.00,,,0.00,,2013-09-06 04:23:00,
2013-09-05 23:44:00,70.0,-99.9,-100.00,SW,223,2.0,-999.0,-999,0.00,,,0.00,,2013-09-06 04:44:00,
2013-09-05 23:54:00,70.0,-99.9,-100.00,SW,223,2.0,-999.0,-999,0.00,,,0.00,,2013-09-06 04:54:00,